Date,TemperatureHighF,TemperatureAvgF,TemperatureLowF,DewpointHighF,DewpointAvgF,DewpointLowF,HumidityHigh,HumidityAvg,HumidityLow,PressureMaxIn,PressureMinIn,WindSpeedMaxMPH,WindSpeedAvgMPH,GustSpeedMaxMPH,PrecipitationSumIn
2013-1-1,44,40,30,32,28,16,74,63,53,30.00,29.82,25,8,25,0.89
2013-1-2,34,30,25,20,16,12,64,56,49,30.18,29.98,25,7,26,0.00
2013-1-3,38,31,26,22,18,17,70,59,45,30.20,30.07,18,5,18,0.00
2013-1-4,39,36,32,25,23,21,69,59,52,30.12,29.97,32,8,32,0.01
2013-1-5,45,38,32,26,24,20,64,57,46,30.30,30.02,22,6,22,0.00
2013-1-6,49,41,34,36,31,24,91,68,50,30.24,29.97,18,4,18,0.04
2013-1-7,48,42,37,31,29,24,74,61,43,30.40,30.05,21,5,22,0.00
2013-1-8,53,42,34,35,31,26,80,66,49,30.44,30.34,21,4,21,0.00
2013-1-9,54,45,37,43,38,33,89,76,55,30.39,30.13,23,4,23,0.00
2013-1-10,50,45,40,34,29,25,70,53,40,30.53,30.25,27,7,28,0.00
2013-1-11,47,44,41,45,39,31,96,84,63,30.52,30.05,22,8,22,0.48
2013-1-12,47,45,44,46,44,43,97,96,94,30.17,30.04,13,4,13,0.01
2013-1-13,44,42,42,44,41,41,97,97,97,30.14,30.10,7,4,8,0.00
2013-1-14,42,42,42,41,41,41,97,97,97,30.12,30.12,5,5,8,0.00
2013-1-15,42,42,42,41,41,41,97,97,97,30.12,30.12,5,5,8,0.00
2013-1-16,42,42,42,41,41,41,97,97,97,30.12,30.12,5,5,8,0.00
2013-1-17,42,42,42,41,41,41,97,97,97,30.12,30.12,5,5,8,0.00
2013-1-18,42,42,42,41,41,41,97,97,97,30.12,30.12,5,5,8,0.00
2013-1-19,42,42,42,41,41,41,97,97,97,30.12,30.12,5,5,8,0.00
2013-1-20,42,42,42,41,41,41,97,97,97,30.12,30.12,5,5,8,0.00
2013-1-21,42,42,42,41,41,41,97,97,97,30.12,30.12,5,5,8,0.00
2013-1-22,42,42,42,41,41,41,97,97,97,30.12,30.12,5,5,8,0.00
2013-1-23,42,22,16,41,12,2,97,65,54,30.26,30.12,10,7,10,0.76
2013-1-24,16,16,16,2,2,2,54,54,54,30.26,30.26,8,8,10,0.76
2013-1-25,16,16,16,2,2,2,54,54,54,30.26,30.26,8,8,10,0.76
2013-1-26,28,20,16,10,5,2,58,52,44,30.38,30.16,18,8,24,0.76
2013-1-27,37,28,20,19,14,9,67,55,41,30.53,30.38,22,7,22,0.00
2013-1-28,39,33,28,37,27,15,92,77,56,30.50,30.01,17,4,17,0.09
2013-1-29,53,42,37,44,39,34,95,90,73,30.14,30.00,13,4,13,0.00
2013-1-30,58,45,41,57,44,40,100,97,95,30.07,29.40,30,9,30,0.02
2013-1-31,59,46,32,58,34,14,97,65,39,29.83,29.10,44,16,45,0.47
2013-2-1,33,30,27,19,13,7,64,49,37,30.25,29.83,32,9,38,0.00
2013-2-2,36,29,21,22,12,5,84,51,31,30.32,30.06,21,7,23,0.00
2013-2-3,34,28,24,25,22,20,90,79,64,30.06,29.79,16,3,17,0.02
2013-2-4,34,30,24,26,16,11,85,57,43,30.00,29.83,28,8,29,0.00
2013-2-5,35,32,27,33,30,22,93,90,75,29.97,29.88,14,4,14,0.01
2013-2-6,41,35,32,32,26,19,92,70,49,30.31,29.91,26,8,26,0.00
2013-2-7,40,35,30,36,25,18,85,69,60,30.47,30.29,23,13,23,0.00
2013-2-8,41,37,28,39,35,27,96,93,84,30.29,29.60,40,19,41,0.64
2013-2-9,33,28,22,29,20,9,97,76,44,30.34,29.73,37,13,37,0.00
2013-2-10,36,27,17,30,17,9,79,65,38,30.49,30.32,18,4,19,0.01
2013-2-11,53,43,34,52,41,28,98,93,75,30.34,29.63,24,5,24,0.22
2013-2-12,47,42,36,43,30,25,92,61,47,29.97,29.72,36,8,36,0.00
2013-2-13,40,36,31,32,29,24,94,76,63,29.96,29.66,14,5,14,0.08
2013-2-14,43,38,33,36,34,31,95,86,72,30.01,29.68,16,5,17,0.05
2013-2-15,51,42,37,40,36,32,90,81,62,30.02,29.91,16,5,16,0.00
2013-2-16,45,37,32,34,29,18,92,76,59,29.94,29.71,22,7,24,0.00
2013-2-17,33,28,20,20,9,1,65,44,32,30.02,29.66,39,16,42,0.00
2013-2-18,38,28,18,15,8,2,52,44,33,30.29,30.02,36,10,37,0.00
2013-2-19,47,40,30,46,34,14,95,79,50,30.23,29.69,31,8,33,0.11
2013-2-20,40,33,27,30,17,11,66,51,41,30.02,29.74,36,14,36,0.00
2013-2-21,36,30,25,17,15,11,64,54,44,30.27,29.99,38,13,39,0.00
2013-2-22,40,32,26,36,26,15,89,77,64,30.39,30.25,15,7,15,0.00
2013-2-23,42,40,37,41,39,36,100,95,89,30.26,29.77,22,10,22,0.37
2013-2-24,48,40,33,40,33,23,97,78,54,29.98,29.73,33,9,33,0.01
2013-2-25,44,38,31,34,28,22,78,68,53,30.23,29.98,16,5,17,0.00
2013-2-26,42,37,32,37,32,27,89,80,72,30.28,30.14,34,9,34,0.00
2013-2-27,53,47,42,51,42,38,98,86,67,29.66,29.48,38,7,38,0.00
2013-2-28,50,44,39,41,36,30,93,73,57,29.63,29.54,21,5,21,0.00
2013-3-1,44,40,34,33,30,27,85,69,53,29.77,29.61,21,8,21,0.00
2013-3-2,43,36,31,28,25,23,75,63,50,29.78,29.69,21,8,21,0.00
2013-3-3,40,33,30,24,21,19,75,61,48,29.77,29.67,25,9,27,0.00
2013-3-4,42,35,28,24,20,16,68,56,45,29.91,29.76,33,12,33,0.00
2013-3-5,43,37,31,36,28,21,86,69,51,30.01,29.90,22,6,22,0.00
2013-3-6,40,39,36,37,35,32,91,85,79,29.96,29.76,54,24,57,0.07
2013-3-7,38,35,33,34,32,30,99,87,78,30.07,29.87,31,10,31,0.19
2013-3-8,42,35,31,34,32,30,96,89,69,30.16,29.99,25,9,26,0.08
2013-3-9,55,44,35,36,28,20,87,57,26,30.31,30.15,23,7,23,0.00
2013-3-10,39,38,34,37,35,32,93,88,84,30.40,30.31,16,7,16,0.00
2013-3-11,46,42,37,45,40,36,96,94,91,30.32,30.09,19,4,19,0.00
2013-3-12,54,47,44,53,45,39,100,94,75,30.10,29.68,31,8,32,0.50
2013-3-13,51,44,39,39,32,25,86,65,39,29.90,29.80,31,7,31,0.00
2013-3-14,42,37,32,28,17,11,63,46,32,29.97,29.86,40,13,40,0.01
2013-3-15,50,41,31,28,21,12,55,45,39,30.00,29.72,30,8,31,0.00
2013-3-16,45,36,32,34,29,23,95,75,50,29.91,29.77,16,5,16,0.02
2013-3-17,39,34,30,33,23,18,94,65,45,30.29,29.91,24,6,26,0.00
2013-3-18,39,35,32,38,27,15,96,74,49,30.40,29.97,39,20,39,0.13
2013-3-19,48,41,38,39,36,19,96,83,40,29.96,29.69,35,10,35,0.25
2013-3-20,49,42,35,27,21,18,61,45,32,29.91,29.79,33,8,33,0.00
2013-3-21,41,33,29,30,24,16,90,69,46,29.81,29.65,23,6,25,0.00
2013-3-22,42,36,31,24,20,16,64,52,40,29.90,29.75,26,9,28,0.00
2013-3-23,46,40,33,24,22,19,63,49,36,29.93,29.82,30,9,32,0.00
2013-3-24,43,38,33,30,24,19,71,58,42,29.96,29.70,19,7,21,0.00
2013-3-25,39,36,32,34,33,29,96,88,70,29.70,29.45,37,15,37,0.33
2013-3-26,50,43,35,37,33,28,96,70,44,29.86,29.58,18,6,18,0.02
2013-3-27,42,38,36,32,29,26,74,70,63,29.94,29.85,20,7,20,0.00
2013-3-30,54,47,44,39,36,25,83,66,35,30.17,30.08,18,6,19,0.00
2013-3-31,49,44,39,48,38,30,96,81,53,30.13,29.67,33,7,37,0.20
2013-4-1,66,52,40,48,40,14,96,67,35,29.90,29.60,38,8,38,0.02
2013-4-2,45,40,34,20,16,12,54,39,29,30.09,29.90,28,9,32,0.00
2013-4-3,47,42,35,19,15,11,45,35,27,30.29,30.08,33,12,33,0.00
2013-4-4,45,39,33,34,25,12,76,56,35,30.38,30.10,24,7,25,0.00
2013-4-5,61,46,37,41,33,23,91,65,25,30.10,29.70,27,5,27,0.12
2013-4-6,45,40,36,31,24,14,70,53,33,30.32,29.98,24,8,25,0.00
2013-4-7,51,44,39,46,38,30,91,80,67,30.32,30.02,29,9,30,0.00
2013-4-8,55,50,45,48,45,41,94,83,71,30.08,29.97,19,4,19,0.00
2013-4-9,83,65,45,56,48,42,96,62,26,29.99,29.89,28,7,34,0.00
2013-4-10,68,55,49,57,49,45,94,80,62,29.93,29.75,35,6,36,0.26
2013-4-11,59,51,45,58,49,43,100,95,90,30.01,29.74,25,8,26,0.03
2013-4-12,45,43,42,44,42,41,97,96,90,29.99,29.68,39,17,40,0.40
2013-4-13,48,45,42,46,43,40,100,91,84,29.98,29.72,15,6,15,0.19
2013-4-14,59,51,45,48,39,28,95,67,34,30.20,29.97,34,6,34,0.00
2013-4-15,49,46,45,44,39,34,91,77,65,30.37,30.20,24,8,25,0.00
2013-4-16,55,50,46,52,48,44,93,90,87,30.37,30.13,25,7,25,0.00
2013-4-17,56,54,52,53,46,39,91,77,57,30.28,30.18,0,0,0,0.00
2013-4-18,52,50,48,51,47,39,96,88,60,30.34,30.09,0,0,0,0.00
2013-4-19,64,54,50,63,53,50,98,97,92,30.09,29.68,0,0,0,0.01
2013-4-20,57,53,48,56,39,28,98,63,35,30.23,29.68,0,0,0,0.34
2013-4-22,45,44,44,41,38,35,86,79,71,30.64,30.47,0,0,0,0.34
2013-4-23,50,45,41,44,40,37,94,84,77,30.47,30.10,0,0,0,0.00
2013-4-24,59,48,42,50,44,38,95,88,63,30.10,29.84,0,0,0,0.00
2013-4-25,58,51,47,54,41,29,95,69,34,30.27,29.89,0,0,0,0.02
2013-4-26,59,51,45,46,41,35,79,69,42,30.39,30.27,0,0,0,0.00
2013-4-27,55,52,48,46,41,35,78,66,51,30.42,30.30,0,0,0,0.00
2013-4-28,55,52,48,48,45,38,88,77,67,30.32,30.21,0,0,0,0.00
2013-4-29,56,51,50,49,48,47,93,90,75,30.23,30.16,0,0,0,0.11
2013-4-30,53,51,50,50,47,44,93,86,75,30.32,30.18,0,0,0,0.01
2013-5-1,52,50,47,48,46,43,94,85,76,30.47,30.31,0,0,0,0.00
2013-5-2,56,52,50,49,47,46,90,82,72,30.46,30.33,0,0,0,0.00
2013-5-3,52,50,49,48,44,41,89,80,67,30.46,30.34,0,0,0,0.00
2013-5-4,54,50,46,49,45,41,91,83,77,30.36,30.26,0,0,0,0.00
2013-5-5,51,48,46,45,42,40,90,81,76,30.30,30.23,0,0,0,0.00
2013-5-6,52,49,47,50,47,44,96,91,87,30.27,30.16,0,0,0,0.00
2013-5-7,55,51,48,54,50,47,98,97,96,30.16,30.07,0,0,0,0.04
2013-5-8,59,56,55,57,55,54,98,96,91,30.08,29.96,0,0,0,0.80
2013-5-9,67,58,54,61,55,52,97,93,74,29.99,29.89,0,0,0,0.07
2013-5-10,68,60,57,61,57,55,93,89,75,29.99,29.87,12,3,13,0.03
2013-5-11,66,59,55,61,58,54,98,94,83,29.89,29.69,22,6,22,0.02
2013-5-12,68,61,52,63,46,30,98,63,29,29.94,29.65,33,9,33,0.02
2013-5-13,58,51,44,37,32,25,71,49,34,30.09,29.94,27,7,27,0.00
2013-5-14,61,50,40,48,35,25,83,60,29,30.13,30.03,24,7,24,0.00
2013-5-15,65,54,49,60,49,34,92,83,54,30.08,29.68,19,2,20,0.00
2013-5-16,69,62,56,61,55,50,90,78,62,29.84,29.69,16,3,17,0.01
2013-5-17,71,63,58,61,47,41,81,56,34,30.18,29.81,18,5,19,0.00
2013-5-18,58,56,55,55,53,48,93,87,76,30.30,30.18,16,4,17,0.01
2013-5-19,57,55,55,56,54,53,98,96,91,30.29,30.15,27,11,27,0.22
2013-5-20,66,58,55,64,57,54,100,97,93,30.16,29.96,11,3,11,0.01
2013-5-21,80,64,59,71,62,57,97,91,66,29.97,29.83,17,5,17,0.00
2013-5-22,69,61,56,67,60,54,100,96,89,29.91,29.82,19,5,19,0.00
2013-5-23,67,59,55,66,58,54,98,95,91,29.90,29.75,22,8,22,0.00
2013-5-24,67,55,44,65,53,42,98,93,82,29.95,29.67,31,3,33,0.08
2013-5-25,58,50,43,46,42,36,94,75,50,30.01,29.90,0,0,0,0.03
2013-5-26,68,58,48,40,38,34,72,48,29,30.19,29.98,0,0,0,0.01
2013-5-27,68,58,49,52,44,36,79,61,35,30.24,30.12,0,0,0,0.00
2013-5-28,60,56,54,56,52,46,97,86,60,30.22,30.10,0,0,0,0.21
2013-5-29,68,60,54,64,58,53,97,92,82,30.12,30.00,0,0,0,0.08
2013-5-30,86,70,60,71,64,57,94,81,51,30.11,30.04,15,3,15,0.00
2013-5-31,86,70,61,72,64,57,91,82,58,30.11,29.99,17,5,17,0.00
2013-6-1,79,65,59,69,61,56,94,87,64,30.02,29.91,17,6,21,0.00
2013-6-2,71,60,56,69,58,54,97,92,85,29.92,29.79,19,5,19,0.09
2013-6-3,70,62,55,68,61,53,98,96,89,29.85,29.77,0,0,0,0.07
2013-6-4,67,62,59,65,51,46,95,68,57,30.00,29.85,0,0,0,0.01
2013-6-10,66,64,64,65,64,63,99,98,98,29.89,29.80,15,6,15,0.01
2013-6-11,84,74,63,71,67,63,99,80,58,29.80,29.61,26,8,27,0.00
2013-6-12,81,72,66,63,59,54,84,65,43,29.83,29.70,28,8,28,0.00
2013-6-13,68,65,60,66,62,56,97,88,67,29.83,29.39,30,7,32,0.00
2013-6-14,68,60,55,60,55,52,97,83,65,29.88,29.45,25,7,25,0.00
2013-6-15,81,69,60,64,58,54,88,69,41,30.00,29.88,18,6,19,0.00
2013-6-16,85,71,64,69,62,58,92,75,52,29.99,29.77,33,6,33,0.00
2013-6-17,86,71,64,71,66,62,95,84,54,29.90,29.81,19,4,20,0.01
2013-6-18,71,67,64,68,64,62,95,91,84,29.88,29.78,27,4,27,0.00
2013-6-19,71,66,62,64,58,53,95,75,57,30.15,29.84,16,6,16,0.00
2013-6-20,74,66,59,62,58,52,88,76,49,30.26,30.15,19,6,19,0.03
2013-6-21,69,65,60,63,60,55,87,83,72,30.30,30.24,14,5,14,0.07
2013-6-22,70,65,60,65,61,57,94,88,67,30.25,30.13,15,4,17,0.07
2013-6-23,80,69,65,69,64,57,97,84,67,30.18,30.06,19,5,19,0.03
2013-6-24,94,79,66,76,71,64,97,78,50,30.07,29.94,24,5,26,0.01
2013-6-25,93,81,69,74,70,64,90,70,49,29.97,29.79,24,6,24,0.02
2013-6-26,91,77,70,71,68,65,94,76,48,29.84,29.76,31,6,31,0.00
2013-6-27,78,73,70,74,71,68,97,93,84,29.79,29.57,29,7,30,0.01
2013-6-28,86,72,66,73,68,64,97,87,59,29.58,29.46,20,6,20,0.00
2013-6-29,81,69,64,71,66,62,96,92,69,29.69,29.48,18,4,19,0.00
2013-6-30,69,66,63,68,65,62,98,96,94,29.90,29.69,14,4,15,0.00
2013-7-1,72,67,64,71,66,64,99,97,95,30.04,29.88,15,5,16,0.00
2013-7-2,73,66,63,72,65,62,99,96,91,30.18,30.04,17,5,18,0.00
2013-7-3,76,66,63,74,65,62,98,96,93,30.25,30.15,17,4,17,0.00
2013-7-4,82,70,65,77,68,63,98,92,75,30.25,30.16,17,5,17,0.00
2013-7-5,86,73,68,76,69,64,93,88,66,30.20,30.08,17,6,17,0.00
2013-7-6,96,84,75,77,74,68,92,74,51,30.14,29.99,18,5,21,0.01
2013-7-7,94,82,76,78,74,70,87,76,55,30.04,29.90,21,6,22,0.04
2013-7-8,90,79,73,74,70,68,86,76,54,30.03,29.96,16,6,20,0.03
2013-7-9,86,75,71,74,70,67,92,84,62,30.05,29.97,37,4,38,0.01
2013-7-10,88,74,66,77,70,64,95,88,61,30.00,29.80,23,5,26,0.02
2013-7-11,83,76,67,75,71,64,94,86,65,29.88,29.79,17,4,17,0.02
2013-7-12,135,116,69,100,93,64,100,96,72,30.04,29.88,32,12,32,0.11
2013-7-13,136,110,-12,100,80,-77,100,89,2,30.26,30.04,27,5,27,0.04
2013-7-14,150,117,-11,100,90,-77,100,95,2,30.32,30.22,16,5,16,0.01
2013-7-15,140,89,-10,100,83,-86,100,82,1,30.24,30.08,18,6,18,0.00
2013-7-16,89,85,81,74,71,66,72,62,50,30.15,30.08,14,4,15,0.00
2013-7-17,86,82,77,77,73,70,85,76,61,30.15,30.04,12,4,12,0.00
2013-7-18,92,83,78,80,75,70,87,78,62,30.05,29.93,15,5,15,0.00
2013-7-19,98,86,80,80,77,74,88,75,52,29.94,29.78,22,6,22,0.00
2013-7-20,96,86,76,77,74,70,87,69,47,29.81,29.69,23,7,26,0.00
2013-7-21,80,77,74,74,71,67,93,84,69,29.92,29.80,20,5,20,0.00
2013-7-22,78,76,74,76,74,73,97,95,93,29.92,29.81,15,6,15,0.09
2013-7-26,74,73,70,69,67,65,88,82,76,30.04,30.00,16,5,16,0.00
2013-7-27,77,71,66,70,67,63,93,88,74,30.05,29.95,16,5,16,0.00
2013-7-28,74,71,68,72,69,66,96,93,90,29.98,29.92,15,5,15,0.10
2013-7-29,82,73,68,72,66,57,96,82,45,30.09,29.93,25,4,25,0.06
2013-7-30,81,73,64,66,60,57,79,64,46,30.15,30.08,15,5,16,0.00
2013-7-31,76,72,66,68,63,58,81,74,63,30.15,30.03,13,5,13,0.00
2013-8-1,73,71,69,70,67,63,96,86,74,30.03,29.82,27,5,30,0.45
2013-8-2,84,75,68,70,66,63,96,77,49,29.91,29.79,22,4,22,0.00
2013-8-3,78,73,69,68,66,64,87,80,67,29.91,29.84,18,5,22,0.01
2013-8-4,80,72,64,65,60,55,93,67,45,29.95,29.83,23,6,23,0.00
2013-8-5,77,68,60,61,54,49,76,62,38,30.04,29.95,16,6,16,0.00
2013-8-6,75,70,63,65,60,54,78,71,59,30.11,30.03,17,6,17,0.00
2013-8-7,75,72,71,69,67,64,92,84,78,30.13,30.05,21,8,22,0.00
2013-8-8,78,72,70,75,70,68,97,94,88,30.06,30.00,27,6,27,0.62
2013-8-9,83,73,69,78,71,68,98,94,80,30.01,29.80,18,6,18,0.06
2013-8-10,83,78,73,75,68,62,95,74,53,30.02,29.84,16,5,16,0.01
2013-8-11,74,71,66,70,63,58,92,75,62,30.11,30.02,12,5,14,0.00
2013-8-12,76,72,70,71,69,67,93,90,85,30.03,29.91,10,3,11,0.01
2013-8-13,74,72,69,73,70,67,98,93,86,29.92,29.70,24,4,26,0.01
2013-8-14,74,68,62,69,55,50,94,65,49,30.03,29.72,25,9,25,0.01
2013-8-15,72,66,57,58,55,51,81,68,54,30.13,30.03,16,6,16,0.00
2013-8-16,74,69,60,63,58,54,84,70,55,30.19,30.11,14,5,15,0.01
2013-8-17,74,69,62,64,61,57,85,75,63,30.26,30.19,10,4,10,0.01
2013-8-18,72,70,66,65,62,53,87,76,56,30.24,30.11,18,7,18,0.00
2013-8-19,78,71,63,65,61,56,85,72,53,30.13,30.02,16,4,16,0.01
2013-8-20,80,73,66,72,68,64,92,85,71,30.11,30.04,16,6,17,0.01
2013-8-21,84,75,70,74,70,63,91,84,49,30.16,30.05,12,5,13,0.01
2013-8-22,79,77,73,74,72,68,89,85,81,30.06,30.00,14,5,14,0.01
2013-8-23,79,79,79,74,74,74,84,84,84,30.00,30.00,6,6,14,0.01
2013-8-24,79,79,79,74,74,74,84,84,84,30.00,30.00,6,6,14,0.01
2013-8-25,79,79,79,74,74,74,84,84,84,30.00,30.00,6,6,14,0.01
2013-8-26,79,79,79,74,74,74,84,84,84,30.00,30.00,6,6,14,0.01
2013-8-27,79,79,79,74,74,74,84,84,84,30.00,30.00,6,6,14,0.01
2013-8-28,79,79,79,74,74,74,84,84,84,30.00,30.00,6,6,14,0.01
2013-8-29,79,79,79,74,74,74,84,84,84,30.00,30.00,6,6,14,0.01
2013-8-30,85,79,73,74,72,68,87,79,60,30.00,29.86,19,6,19,0.03
2013-8-31,86,75,70,74,71,68,93,87,69,29.88,29.78,20,6,20,0.00
2013-9-1,77,72,69,73,70,68,98,93,84,29.84,29.77,15,4,16,0.00
2013-9-2,73,71,68,72,71,68,99,98,98,29.79,29.75,10,2,10,0.00
2013-9-3,72,72,72,72,72,72,98,98,98,29.78,29.78,2,2,5,0.00
2013-9-4,72,72,72,72,72,72,98,98,98,29.78,29.78,2,2,5,0.00
2013-9-5,72,72,72,72,72,72,98,98,98,29.78,29.78,2,2,5,0.00
2013-9-6,72,72,72,72,72,72,98,98,98,29.78,29.78,2,2,5,0.00
2013-9-7,72,72,72,72,72,72,98,98,98,29.78,29.78,2,2,5,0.00
2013-9-8,72,72,72,72,72,72,98,98,98,29.78,29.78,2,2,5,0.00
2013-9-9,72,72,72,72,72,72,98,98,98,29.78,29.78,2,2,5,0.00
2013-9-10,76,73,71,72,71,68,98,94,84,30.11,29.78,2,1,5,0.11
2013-9-11,82,76,73,75,72,68,91,87,76,30.11,30.04,0,0,0,0.00
2013-9-12,75,71,67,72,68,66,96,90,85,29.87,29.69,0,0,0,0.26
2013-9-13,76,70,61,69,62,51,95,78,55,29.84,29.62,0,0,0,0.10
2013-9-14,66,59,52,52,49,47,85,71,55,30.13,29.84,0,0,0,0.00
2013-9-15,73,60,49,60,50,45,86,72,42,30.23,30.08,0,0,0,0.00
2013-9-16,69,64,61,60,57,53,92,80,65,30.21,30.04,0,0,0,0.01
2013-9-17,62,56,52,53,44,40,84,63,50,30.43,30.21,0,0,0,0.00
2013-9-18,66,58,49,53,49,43,84,73,55,30.35,30.20,0,0,0,0.00
2013-9-19,60,60,60,52,52,52,75,75,75,30.21,30.21,0,0,0,0.00
2013-9-20,60,60,60,52,52,52,75,75,75,30.21,30.21,0,0,0,0.00
2013-9-21,60,60,60,52,52,52,75,75,75,30.21,30.21,0,0,0,0.00
2013-9-22,60,60,60,52,52,52,75,75,75,30.21,30.21,0,0,0,0.00
2013-9-23,60,60,60,52,52,52,75,75,75,30.21,30.21,0,0,0,0.00
2013-9-24,60,60,60,52,52,52,75,75,75,30.21,30.21,0,0,0,0.00
2013-9-25,60,60,60,52,52,52,75,75,75,30.21,30.21,0,0,0,0.00
2013-9-26,60,60,60,52,52,52,75,75,75,30.21,30.21,0,0,0,0.00
2013-9-27,60,60,60,52,52,52,75,75,75,30.21,30.21,0,0,0,0.00
2013-9-28,60,60,60,52,52,52,75,75,75,30.21,30.21,0,0,0,0.00
2013-9-29,64,62,60,57,54,52,82,75,68,30.21,30.07,0,0,0,0.00
2013-9-30,66,61,55,59,55,51,92,83,71,30.08,29.98,0,0,0,0.00
2013-10-1,75,65,57,65,59,53,89,81,58,30.01,29.90,0,0,0,0.00
2013-10-2,83,72,62,64,61,57,87,70,50,30.00,29.90,0,0,0,0.00
2013-10-3,71,68,63,64,61,55,86,78,60,30.11,30.00,0,0,0,0.00
2013-10-4,83,70,62,68,64,58,92,83,58,30.06,29.97,0,0,0,0.00
2013-10-5,72,67,66,65,64,63,95,91,80,30.09,29.99,0,0,0,0.00
2013-10-6,66,66,66,63,63,63,92,92,92,30.06,30.06,0,0,0,0.00
2013-10-7,66,66,66,63,63,63,92,92,92,30.06,30.06,0,0,0,0.00
2013-10-8,66,66,66,63,63,63,92,92,92,30.06,30.06,0,0,0,0.00
2013-10-9,66,64,60,63,59,52,92,85,75,30.32,30.06,0,0,0,0.00
2013-10-10,64,61,57,60,57,53,92,89,78,30.24,30.03,0,0,0,0.00
2013-10-11,65,63,62,62,60,59,96,91,85,30.06,29.97,0,0,0,0.00
2013-10-12,65,63,61,60,57,52,89,81,71,30.25,30.03,0,0,0,0.00
2013-10-13,61,60,58,57,54,51,89,81,75,30.37,30.25,0,0,0,0.00
2013-10-14,60,59,56,54,52,50,83,79,74,30.36,30.25,0,0,0,0.00
2013-10-15,62,59,53,58,54,50,93,83,72,30.26,30.09,0,0,0,0.00
2013-10-16,62,61,59,60,59,57,94,91,86,30.10,29.92,0,0,0,0.00
2013-10-17,68,63,60,64,61,58,96,93,82,29.93,29.70,0,0,0,0.00
2013-10-18,67,61,54,63,50,44,92,66,49,29.99,29.69,0,0,0,0.00
2013-10-19,62,57,50,57,50,43,92,77,70,30.00,29.77,0,0,0,0.00
2013-10-20,62,55,49,57,43,36,90,65,39,30.08,29.76,0,0,0,0.00
2013-10-21,67,56,46,50,44,38,79,65,36,30.16,29.99,0,0,0,0.00
2013-10-22,70,59,51,53,48,40,87,70,48,30.00,29.75,0,0,0,0.00
2013-10-23,54,51,44,47,42,38,80,71,59,29.81,29.60,0,0,0,0.00
2013-10-24,53,46,41,38,34,29,82,65,42,30.05,29.78,0,0,0,0.00
2013-10-25,53,45,39,35,33,30,74,62,44,30.26,30.05,0,0,0,0.00
2013-10-26,57,48,38,39,34,30,78,60,37,30.25,29.92,0,0,0,0.00
2013-10-27,58,51,45,36,35,34,66,55,42,30.14,29.89,0,0,0,0.00
2013-10-28,62,51,40,43,37,32,76,59,41,30.30,30.14,0,0,0,0.00
2013-10-29,56,52,51,46,44,40,81,72,58,30.40,30.30,0,0,0,0.00
2013-11-4,49,45,42,39,33,28,69,62,54,30.65,30.60,0,0,0,0.00
2013-11-5,54,52,49,46,42,38,76,71,66,30.64,30.48,0,0,0,0.00
2013-11-6,59,55,46,56,49,41,93,82,74,30.49,30.08,0,0,0,0.00
2013-11-7,64,56,44,61,52,34,96,86,69,30.08,29.76,0,0,0,0.00
2013-11-8,49,45,41,37,32,28,75,61,46,30.25,29.96,0,0,0,0.00
2013-11-9,53,45,37,37,31,26,76,59,39,30.32,30.01,0,0,0,0.00
2013-11-10,62,52,45,38,34,29,69,53,38,30.08,29.82,0,0,0,0.00
2013-11-11,57,49,42,37,31,27,58,50,35,30.23,29.98,0,0,0,0.00
2013-11-12,52,39,31,38,27,18,88,64,50,30.31,29.94,0,0,0,0.00
2013-11-13,40,33,27,22,17,12,68,53,33,30.39,30.30,24,6,24,0.00
2013-11-14,55,44,33,27,20,14,61,41,20,30.31,30.19,29,7,29,0.00
2013-11-15,57,47,41,44,35,26,73,62,42,30.27,30.17,17,3,17,0.00
2013-11-16,52,48,45,48,43,35,92,81,64,30.35,30.24,9,2,12,0.01
2013-11-17,59,54,49,57,53,47,98,96,92,30.27,29.80,12,2,12,0.00
2013-11-18,67,60,52,59,44,28,100,61,31,29.81,29.62,37,8,37,0.01
2013-11-19,52,44,37,31,27,24,61,50,40,30.35,29.79,32,10,32,0.00
2013-11-20,43,39,34,30,23,18,66,54,38,30.61,30.35,21,7,21,0.00
2013-11-21,51,48,43,45,39,30,80,70,58,30.61,30.40,19,8,19,0.00
2013-11-22,58,54,50,52,48,42,92,82,73,30.40,29.92,19,3,22,0.00
2013-11-23,54,44,33,50,29,16,87,57,40,30.03,29.91,33,11,35,0.00
2013-11-24,33,27,24,18,5,2,55,39,34,30.42,30.01,41,14,41,0.00
2013-11-25,41,31,23,19,14,7,62,48,35,30.52,30.36,17,5,18,0.00
2013-11-26,53,41,34,52,31,18,96,69,43,30.37,29.74,33,6,34,0.00
2013-11-27,60,47,35,59,44,22,98,91,58,29.78,29.33,41,15,41,0.01
2013-11-28,37,34,31,25,18,12,67,54,38,30.50,29.78,34,9,34,0.15
2013-11-29,40,34,30,25,21,19,73,59,45,30.72,30.49,15,3,18,0.24
2013-11-30,46,36,28,42,27,16,85,70,60,30.74,30.36,21,8,21,0.17
2013-12-1,50,43,36,42,36,31,86,77,56,30.36,30.01,12,3,12,0.02
2013-12-2,49,44,40,44,36,30,93,75,54,30.02,29.88,11,2,11,0.01
2013-12-3,53,45,41,43,40,36,98,85,63,30.00,29.87,10,3,10,0.00
2013-12-4,50,46,40,48,42,34,95,87,75,30.13,30.00,9,2,9,0.00
2013-12-5,53,50,49,52,49,48,98,96,94,30.12,29.95,13,3,14,0.00
2013-12-6,58,47,37,58,46,35,98,96,92,30.13,29.88,20,4,20,0.00
2013-12-7,40,36,32,35,30,21,93,78,61,30.52,30.08,21,7,22,0.00
2013-12-8,41,32,28,40,26,18,96,79,63,30.60,30.34,28,9,28,0.16
2013-12-9,46,41,37,45,40,35,97,95,91,30.34,29.98,27,10,33,0.23
2013-12-10,37,35,31,35,31,24,94,87,75,30.17,29.86,19,6,19,0.01
2013-12-11,37,32,27,25,21,18,80,65,49,30.37,30.17,23,5,23,0.23
2013-12-12,31,26,23,21,12,5,72,56,38,30.37,30.20,21,5,21,0.01
2013-12-13,39,31,23,21,16,12,64,54,42,30.34,30.16,27,4,27,0.04
2013-12-14,50,37,31,49,33,19,96,84,56,30.46,29.69,38,18,39,0.25
2013-12-15,53,40,34,53,35,24,97,82,61,29.88,29.47,38,10,40,0.04
2013-12-16,36,30,24,26,15,9,69,54,42,30.25,29.86,29,8,29,0.02
2013-12-17,45,33,26,42,28,12,94,82,55,30.23,29.91,24,6,24,0.26
2013-12-18,39,32,24,26,23,20,90,71,51,30.20,29.91,27,7,27,0.00
2013-12-19,52,40,30,33,28,21,75,62,43,30.22,30.04,20,2,20,0.01
2013-12-20,57,48,41,44,37,32,93,68,44,30.11,29.98,16,2,16,0.00
2013-12-21,60,50,46,58,47,43,97,90,81,30.01,29.90,14,4,14,0.00
2013-12-22,63,54,49,62,52,48,100,94,85,29.97,29.83,27,8,31,0.02
2013-12-23,58,51,42,57,49,35,98,94,76,30.15,29.89,22,6,25,0.15
2013-12-24,42,36,28,35,25,13,77,62,49,30.36,30.09,29,9,29,0.02
2013-12-25,33,26,20,23,13,8,71,57,43,30.54,30.36,26,6,26,0.01
2013-12-26,43,34,27,29,24,19,77,68,53,30.43,30.17,20,4,20,0.01
2013-12-27,46,37,29,26,23,18,75,58,36,30.40,30.27,21,3,21,0.00
2013-12-28,59,46,34,31,28,22,69,51,34,30.31,30.09,26,6,28,0.00
2013-12-29,57,46,42,56,39,30,97,79,52,30.09,29.39,29,7,29,0.89
2013-12-30,47,39,25,40,31,13,92,73,56,30.19,29.71,24,7,26,0.01
2013-12-31,40,30,23,26,17,11,67,57,47,30.31,30.08,25,7,26,0.00
2014-1-1,39,32,26,33,20,11,83,62,45,30.43,30.23,21,5,22,0.00
2014-1-2,40,33,24,37,31,23,96,92,83,30.23,29.61,25,11,26,0.00